ニオワイズ彗星

C/2016 C2 ( NEOWISE )

English version
Home page
Updated on May 26, 2021

---------------------------------------------------------------------

・ プロフィール

発見日 2016年2月8日
発見光度 19等
発見者 Near-Earth Object Wide-field Infrared Survey Explorer

・ 写真集

・ 軌道要素

Epoch 2016 Apr. 2.0 TT = JDT 2457480.5
T 2016 Apr. 19.59789 TT                                 MPCW
q   1.5597453            (2000.0)            P               Q
z  +0.0156524      Peri.  214.40392     -0.56778426     +0.78259879
 +/-0.0000050      Node    24.40450     -0.54512473     -0.12510477
e   0.9755862      Incl.   38.15650     -0.61681444     -0.60982614
From 138 observations 2016 Feb. 8-June 13, mean residual 0".4.

・ 光度変化

        m1 = 14.5 + 5 logΔ + 13.0 log r(t - 20)

---------------------------------------------------------------------

軌道要素はM.P.E.C. 2016-M22に掲載されたものです。
光度グラフはComet for Windowsで作成したものです。

---------------------------------------------------------------------

Copyright(C) Seiichi Yoshida (comet@aerith.net). All rights reserved.